timestamp,wind_dir_avg,wind_spd_avg,wind_spd_max_dir,wind_spd_gust,battery_voltage,lat,long
2023-12-05 00:04:00+00:00,32.0,11.23,33.0,12.69,12.09,47.59359,-54.27349
2023-12-05 00:14:00+00:00,26.0,9.5,22.0,11.0,12.09,47.59359,-54.27349
2023-12-05 00:24:00+00:00,27.0,9.71,8.0,12.35,12.09,47.59359,-54.27349
2023-12-05 00:34:00+00:00,14.0,8.82,24.0,10.56,12.09,47.59359,-54.27349
2023-12-05 00:44:00+00:00,18.0,8.83,22.0,10.22,12.09,47.59359,-54.27349
2023-12-05 00:54:00+00:00,26.0,9.55,36.0,10.71,12.09,47.59359,-54.27349
2023-12-05 01:04:00+00:00,28.0,10.38,33.0,12.03,12.09,47.59359,-54.27349
2023-12-05 01:14:00+00:00,25.0,8.84,23.0,10.16,12.09,47.59359,-54.27349
2023-12-05 01:24:00+00:00,19.0,8.37,19.0,9.77,12.09,47.59359,-54.27349
2023-12-05 01:34:00+00:00,24.0,9.44,19.0,11.53,12.09,47.59359,-54.27349
2023-12-05 01:44:00+00:00,23.0,9.61,22.0,11.53,12.09,47.59359,-54.27349
2023-12-05 01:54:00+00:00,26.0,10.41,34.0,11.85,12.09,47.59359,-54.27349
2023-12-05 02:04:00+00:00,31.0,10.23,30.0,12.48,12.09,47.59359,-54.27349
2023-12-05 02:14:00+00:00,26.0,10.33,33.0,12.77,12.09,47.59359,-54.27349
2023-12-05 02:24:00+00:00,32.0,12.62,30.0,13.97,12.09,47.59359,-54.27349
2023-12-05 02:34:00+00:00,35.0,12.55,32.0,13.86,12.09,47.59359,-54.27349
2023-12-05 02:44:00+00:00,39.0,10.72,36.0,12.09,12.09,47.59359,-54.27349
2023-12-05 02:54:00+00:00,35.0,10.32,41.0,11.64,12.09,47.59359,-54.27349
2023-12-05 03:04:00+00:00,28.0,10.46,27.0,12.02,12.09,47.59359,-54.27349
2023-12-05 03:14:00+00:00,31.0,10.48,30.0,12.21,12.09,47.59359,-54.27349
2023-12-05 03:24:00+00:00,31.0,10.8,36.0,12.13,12.09,47.59359,-54.27349
2023-12-05 03:34:00+00:00,40.0,11.56,38.0,13.04,12.09,47.59359,-54.27349
2023-12-05 03:44:00+00:00,39.0,11.33,36.0,12.88,12.09,47.59359,-54.27349
2023-12-05 03:54:00+00:00,29.0,10.36,39.0,11.76,12.09,47.59359,-54.27349
2023-12-05 04:04:00+00:00,25.0,10.82,30.0,12.82,12.09,47.59359,-54.27349
2023-12-05 04:14:01+00:00,22.0,10.01,21.0,11.27,12.09,47.59359,-54.27349
2023-12-05 04:24:01+00:00,30.0,9.55,30.0,11.46,12.09,47.59359,-54.27349
2023-12-05 04:34:01+00:00,27.0,10.7,25.0,11.54,12.09,47.59359,-54.27349
2023-12-05 04:44:01+00:00,27.0,9.53,21.0,11.16,12.09,47.59359,-54.27349
2023-12-05 04:54:01+00:00,27.0,9.49,27.0,10.25,12.09,47.59359,-54.27349
2023-12-05 05:04:01+00:00,23.0,8.4,19.0,10.01,12.09,47.59359,-54.27349
2023-12-05 05:14:01+00:00,22.0,8.8,21.0,9.94,12.09,47.59359,-54.27349
2023-12-05 05:24:01+00:00,28.0,7.57,30.0,9.84,12.09,47.59359,-54.27349
2023-12-05 05:34:01+00:00,21.0,7.64,30.0,9.03,12.09,47.59359,-54.27349
2023-12-05 05:44:01+00:00,21.0,8.82,21.0,9.75,12.09,47.59359,-54.27349
2023-12-05 05:54:01+00:00,33.0,10.04,35.0,12.0,12.09,47.59359,-54.27349
2023-12-05 06:04:01+00:00,28.0,9.22,19.0,10.57,12.09,47.59359,-54.27349
2023-12-05 06:14:00+00:00,37.0,9.48,36.0,10.69,12.09,47.59359,-54.27349
2023-12-05 06:24:00+00:00,33.0,9.71,34.0,11.63,12.09,47.59359,-54.27349
2023-12-05 06:34:00+00:00,31.0,9.4,38.0,10.68,12.09,47.59359,-54.27349
2023-12-05 06:44:00+00:00,23.0,8.5,20.0,9.33,12.09,47.59359,-54.27349
2023-12-05 06:54:00+00:00,30.0,7.93,22.0,9.37,12.09,47.59359,-54.27349
2023-12-05 07:04:00+00:00,30.0,7.61,30.0,8.51,12.09,47.59359,-54.27349
2023-12-05 07:14:00+00:00,23.0,7.26,18.0,8.9,12.09,47.59359,-54.27349
2023-12-05 07:24:00+00:00,14.0,7.19,13.0,8.59,12.09,47.59359,-54.27349
2023-12-05 07:34:00+00:00,25.0,7.77,21.0,8.9,12.09,47.59359,-54.27349
2023-12-05 07:44:00+00:00,25.0,7.97,24.0,9.1,12.09,47.59359,-54.27349
2023-12-05 07:54:00+00:00,25.0,7.84,24.0,9.77,12.09,47.59359,-54.27349
2023-12-05 08:04:00+00:00,16.0,7.27,18.0,9.01,12.09,47.59359,-54.27349
2023-12-05 08:14:00+00:00,14.0,6.84,14.0,8.07,12.09,47.59359,-54.27349
2023-12-05 08:24:00+00:00,21.0,6.07,24.0,7.28,12.09,47.59359,-54.27349
2023-12-05 08:34:00+00:00,16.0,6.83,22.0,8.08,12.09,47.59359,-54.27349
2023-12-05 08:44:00+00:00,27.0,6.81,34.0,7.5,12.09,47.59359,-54.27349
2023-12-05 08:54:00+00:00,18.0,6.84,20.0,7.49,12.09,47.59359,-54.27349
2023-12-05 09:04:00+00:00,17.0,6.73,17.0,7.38,12.09,47.59359,-54.27349
2023-12-05 09:14:00+00:00,26.0,6.55,26.0,7.46,12.09,47.59359,-54.27349
2023-12-05 09:24:00+00:00,19.0,6.29,21.0,7.1,12.09,47.59359,-54.27349
2023-12-05 09:34:00+00:00,21.0,5.53,23.0,6.86,12.09,47.59359,-54.27349
2023-12-05 09:44:00+00:00,31.0,5.55,27.0,7.01,12.09,47.59359,-54.27349
2023-12-05 09:54:00+00:00,25.0,4.67,32.0,5.78,12.09,47.59359,-54.27349
2023-12-05 10:04:00+00:00,31.0,4.92,34.0,5.73,12.09,47.59359,-54.27349
2023-12-05 10:14:00+00:00,30.0,5.52,29.0,6.5,12.09,47.59359,-54.27349
2023-12-05 10:24:00+00:00,29.0,6.83,31.0,7.27,12.09,47.59359,-54.27349
2023-12-05 10:34:00+00:00,35.0,5.58,36.0,6.74,12.09,47.59359,-54.27349
2023-12-05 10:44:00+00:00,27.0,5.43,32.0,6.16,12.09,47.59359,-54.27349
2023-12-05 10:54:00+00:00,10.0,6.12,18.0,7.25,12.09,47.59359,-54.27349
2023-12-05 11:04:00+00:00,34.0,6.79,43.0,8.48,12.09,47.59359,-54.27349
2023-12-05 11:14:00+00:00,18.0,6.48,21.0,7.88,12.09,47.59359,-54.27349
2023-12-05 11:24:00+00:00,26.0,6.88,30.0,7.85,12.09,47.59359,-54.27349
2023-12-05 11:34:00+00:00,20.0,6.39,17.0,7.45,12.09,47.59359,-54.27349
2023-12-05 11:44:00+00:00,24.0,6.08,26.0,6.93,12.09,47.59359,-54.27349
2023-12-05 11:54:00+00:00,20.0,6.2,29.0,6.96,12.09,47.59359,-54.27349
2023-12-05 12:04:00+00:00,32.0,6.57,37.0,8.08,12.09,47.59359,-54.27349
2023-12-05 12:14:01+00:00,34.0,6.35,28.0,8.65,13.37,47.59359,-54.27349
2023-12-05 12:24:01+00:00,34.0,6.37,33.0,7.24,13.37,47.59359,-54.27349
2023-12-05 12:34:01+00:00,24.0,5.92,27.0,6.72,13.37,47.59359,-54.27349
2023-12-05 12:44:01+00:00,23.0,5.75,22.0,6.37,13.37,47.59359,-54.27349
2023-12-05 12:54:01+00:00,36.0,5.75,35.0,6.89,13.37,47.59359,-54.27349
2023-12-05 13:04:01+00:00,27.0,3.62,33.0,5.22,13.37,47.59359,-54.27349
2023-12-05 13:14:01+00:00,16.0,3.64,13.0,4.13,13.21,47.59359,-54.27349
2023-12-05 13:24:01+00:00,30.0,4.82,30.0,5.87,13.21,47.59359,-54.27349
2023-12-05 13:34:01+00:00,35.0,5.54,31.0,6.36,13.21,47.59359,-54.27349
2023-12-05 13:44:01+00:00,33.0,5.97,29.0,6.73,13.21,47.59359,-54.27349
2023-12-05 13:54:01+00:00,21.0,5.07,29.0,6.32,13.21,47.59359,-54.27349
2023-12-05 14:04:01+00:00,44.0,4.96,43.0,6.93,13.21,47.59359,-54.27349
2023-12-05 14:14:00+00:00,50.0,5.37,44.0,6.99,14.32,47.59359,-54.27349
2023-12-05 14:24:00+00:00,33.0,5.58,32.0,6.33,14.32,47.59359,-54.27349
2023-12-05 14:34:00+00:00,40.0,5.78,39.0,6.49,14.32,47.59359,-54.27349
2023-12-05 14:44:00+00:00,32.0,6.02,30.0,6.68,14.32,47.59359,-54.27349
2023-12-05 14:54:00+00:00,37.0,5.01,36.0,5.58,14.32,47.59359,-54.27349
2023-12-05 15:04:00+00:00,32.0,5.49,30.0,6.38,14.32,47.59359,-54.27349
2023-12-05 15:14:00+00:00,32.0,5.91,34.0,6.67,13.6,47.59359,-54.27349
2023-12-05 15:24:00+00:00,53.0,5.35,56.0,5.9,13.6,47.59359,-54.27349
2023-12-05 15:34:00+00:00,48.0,5.7,57.0,6.96,13.6,47.59359,-54.27349
2023-12-05 15:44:00+00:00,39.0,5.21,37.0,6.3,13.6,47.59359,-54.27349
2023-12-05 15:54:00+00:00,56.0,4.45,56.0,5.33,13.6,47.59359,-54.27349
2023-12-05 16:04:00+00:00,45.0,5.31,37.0,6.11,13.6,47.59359,-54.27349
2023-12-05 16:14:00+00:00,36.0,5.09,32.0,6.44,13.37,47.59359,-54.27349
2023-12-05 16:24:00+00:00,35.0,5.24,31.0,6.35,13.37,47.59359,-54.27349
2023-12-05 16:34:00+00:00,45.0,5.09,45.0,5.72,13.37,47.59359,-54.27349
2023-12-05 16:44:00+00:00,15.0,3.86,17.0,4.65,13.37,47.59359,-54.27349
2023-12-05 16:54:00+00:00,27.0,4.62,26.0,5.45,13.37,47.59359,-54.27349
2023-12-05 17:04:00+00:00,32.0,4.85,30.0,5.77,13.37,47.59359,-54.27349
2023-12-05 17:14:00+00:00,27.0,3.03,38.0,3.79,13.29,47.59359,-54.27349
2023-12-05 17:24:00+00:00,19.0,4.3,15.0,5.42,13.29,47.59359,-54.27349
2023-12-05 17:34:00+00:00,341.0,3.44,340.0,4.89,13.29,47.59359,-54.27349
2023-12-05 17:44:00+00:00,348.0,4.46,348.0,5.53,13.29,47.59359,-54.27349
2023-12-05 17:54:00+00:00,354.0,4.87,351.0,5.62,13.29,47.59359,-54.27349
2023-12-05 18:04:00+00:00,356.0,4.93,2.0,5.89,13.29,47.59359,-54.27349
2023-12-05 18:14:00+00:00,16.0,3.81,21.0,4.85,13.05,47.59359,-54.27349
2023-12-05 18:24:00+00:00,5.0,5.16,4.0,6.22,13.05,47.59359,-54.27349
2023-12-05 18:34:00+00:00,354.0,4.93,358.0,5.94,13.05,47.59359,-54.27349
2023-12-05 18:44:00+00:00,355.0,4.17,347.0,5.03,13.05,47.59359,-54.27349
2023-12-05 18:54:00+00:00,2.0,4.86,4.0,5.54,13.05,47.59359,-54.27349
2023-12-05 19:04:00+00:00,13.0,3.98,10.0,5.02,13.05,47.59359,-54.27349
2023-12-05 19:14:00+00:00,15.0,4.99,15.0,5.87,12.81,47.59359,-54.27349
2023-12-05 19:24:00+00:00,5.0,5.19,9.0,5.97,12.81,47.59359,-54.27349
2023-12-05 19:34:00+00:00,12.0,5.34,9.0,6.38,12.81,47.59359,-54.27349
2023-12-05 19:44:00+00:00,4.0,5.26,4.0,6.22,12.81,47.59359,-54.27349
2023-12-05 19:54:00+00:00,358.0,4.37,1.0,5.26,12.81,47.59359,-54.27349
2023-12-05 20:04:00+00:00,3.0,4.09,358.0,4.9,12.81,47.59359,-54.27349
2023-12-05 20:14:00+00:00,356.0,5.13,354.0,5.62,12.57,47.59359,-54.27349
2023-12-05 20:24:00+00:00,351.0,4.43,352.0,5.03,12.57,47.59359,-54.27349
2023-12-05 20:34:00+00:00,347.0,4.84,354.0,5.52,12.57,47.59359,-54.27349
2023-12-05 20:44:00+00:00,345.0,4.17,343.0,5.24,12.57,47.59359,-54.27349
2023-12-05 20:54:00+00:00,315.0,4.36,315.0,4.85,12.57,47.59359,-54.27349
2023-12-05 21:04:00+00:00,326.0,4.73,340.0,6.0,12.57,47.59359,-54.27349
2023-12-05 21:14:00+00:00,333.0,4.65,331.0,6.17,12.49,47.59359,-54.27349
2023-12-05 21:24:00+00:00,326.0,5.55,331.0,6.32,12.49,47.59359,-54.27349
2023-12-05 21:34:00+00:00,325.0,4.85,330.0,5.57,12.49,47.59359,-54.27349
2023-12-05 21:44:00+00:00,328.0,5.52,330.0,6.5,12.49,47.59359,-54.27349
2023-12-05 21:54:00+00:00,348.0,5.19,344.0,6.24,12.49,47.59359,-54.27349
2023-12-05 22:04:00+00:00,347.0,4.33,343.0,5.46,12.49,47.59359,-54.27349
2023-12-05 22:14:00+00:00,346.0,5.41,342.0,5.98,12.41,47.59359,-54.27349
2023-12-05 22:24:00+00:00,333.0,4.1,322.0,5.38,12.41,47.59359,-54.27349
2023-12-05 22:34:00+00:00,333.0,4.23,328.0,5.25,12.41,47.59359,-54.27349
2023-12-05 22:44:00+00:00,333.0,4.37,333.0,4.96,12.41,47.59359,-54.27349
2023-12-05 22:54:00+00:00,329.0,4.05,330.0,5.12,12.41,47.59359,-54.27349
2023-12-05 23:04:00+00:00,327.0,3.96,331.0,4.39,12.41,47.59359,-54.27349
2023-12-05 23:14:00+00:00,319.0,3.5,317.0,3.81,12.41,47.59359,-54.27349
2023-12-05 23:24:00+00:00,310.0,4.55,299.0,5.0,12.41,47.59359,-54.27349
2023-12-05 23:34:00+00:00,325.0,4.72,327.0,5.24,12.41,47.59359,-54.27349
2023-12-05 23:44:00+00:00,324.0,4.81,324.0,5.61,12.41,47.59359,-54.27349
2023-12-05 23:54:00+00:00,324.0,4.54,315.0,5.31,12.41,47.59359,-54.27349
